TimeEDT,TemperatureF,Dew PointF,Humidity,Sea Level PressureIn,VisibilityMPH,Wind Direction,Wind SpeedMPH,Gust SpeedMPH,PrecipitationIn,Events,Conditions,WindDirDegrees,DateUTC
12:15 AM,35.6,30.2,81,29.76,10.0,WNW,5.8,-,N/A,,Clear,300,2013-10-23 04:15:00
12:35 AM,44.6,33.8,66,29.76,10.0,NW,3.5,-,N/A,,Clear,320,2013-10-23 04:35:00
12:55 AM,44.6,32.0,61,29.76,10.0,Calm,Calm,-,N/A,,Clear,0,2013-10-23 04:55:00
1:15 AM,42.8,30.2,61,29.76,10.0,NW,5.8,-,N/A,,Clear,310,2013-10-23 05:15:00
1:35 AM,42.8,30.2,61,29.76,10.0,WNW,5.8,-,N/A,,Clear,290,2013-10-23 05:35:00
1:55 AM,41.0,28.4,61,29.76,10.0,West,5.8,-,N/A,,Clear,280,2013-10-23 05:55:00
2:15 AM,37.4,30.2,75,29.76,10.0,WSW,4.6,-,N/A,,Clear,250,2013-10-23 06:15:00
2:35 AM,35.6,30.2,81,29.77,10.0,SW,4.6,-,N/A,,Clear,220,2013-10-23 06:35:00
2:55 AM,35.6,32.0,87,29.77,10.0,SSW,3.5,-,N/A,,Clear,210,2013-10-23 06:55:00
3:15 AM,35.6,30.2,81,29.77,10.0,Calm,Calm,-,N/A,,Clear,0,2013-10-23 07:15:00
3:35 AM,35.6,28.4,75,29.77,10.0,Calm,Calm,-,N/A,,Clear,0,2013-10-23 07:35:00
3:55 AM,35.6,30.2,81,29.76,10.0,Calm,Calm,-,N/A,,Clear,0,2013-10-23 07:55:00
4:15 AM,35.6,30.2,81,29.76,10.0,Calm,Calm,-,N/A,,Clear,0,2013-10-23 08:15:00
4:35 AM,33.8,28.4,81,29.76,10.0,SW,5.8,-,N/A,,Clear,230,2013-10-23 08:35:00
4:55 AM,30.2,28.4,93,29.76,10.0,Calm,Calm,-,N/A,,Clear,0,2013-10-23 08:55:00
5:15 AM,30.2,28.4,93,29.76,10.0,Calm,Calm,-,N/A,,Clear,0,2013-10-23 09:15:00
5:35 AM,30.2,26.6,86,29.75,10.0,Calm,Calm,-,N/A,,Clear,0,2013-10-23 09:35:00
5:55 AM,30.2,28.4,93,29.75,10.0,NNE,3.5,-,N/A,,Clear,30,2013-10-23 09:55:00
6:15 AM,28.4,24.8,86,29.74,10.0,Calm,Calm,-,N/A,,Clear,0,2013-10-23 10:15:00
6:35 AM,28.4,26.6,93,29.73,10.0,WSW,3.5,-,N/A,,Clear,250,2013-10-23 10:35:00
6:55 AM,28.4,26.6,93,29.74,10.0,Calm,Calm,-,N/A,,Clear,0,2013-10-23 10:55:00
7:15 AM,28.4,26.6,93,29.74,10.0,Calm,Calm,-,N/A,,Clear,0,2013-10-23 11:15:00
7:35 AM,28.4,26.6,93,29.73,10.0,West,5.8,-,N/A,,Clear,270,2013-10-23 11:35:00
7:55 AM,30.2,30.2,100,29.74,10.0,Calm,Calm,-,N/A,,Clear,0,2013-10-23 11:55:00
8:15 AM,33.8,28.4,81,29.74,10.0,ENE,3.5,-,N/A,,Clear,60,2013-10-23 12:15:00
8:35 AM,37.4,30.2,75,29.75,10.0,Calm,Calm,-,N/A,,Clear,0,2013-10-23 12:35:00
9:15 AM,44.6,32.0,61,29.75,-9999.0,Calm,Calm,-,N/A,,Unknown,0,2013-10-23 13:15:00
9:55 AM,50.0,32.0,50,29.74,10.0,West,5.8,-,N/A,,Unknown,270,2013-10-23 13:55:00
10:15 AM,51.8,30.2,44,29.73,10.0,WSW,5.8,-,N/A,,Unknown,250,2013-10-23 14:15:00
10:35 AM,51.8,30.2,44,29.73,10.0,Calm,Calm,-,N/A,,Clear,0,2013-10-23 14:35:00
10:55 AM,51.8,28.4,41,29.72,10.0,SW,5.8,-,N/A,,Clear,230,2013-10-23 14:55:00
11:15 AM,51.8,30.2,44,29.71,10.0,SW,4.6,-,N/A,,Clear,220,2013-10-23 15:15:00
11:35 AM,53.6,26.6,35,29.71,10.0,SW,3.5,-,N/A,,Clear,230,2013-10-23 15:35:00
11:55 AM,53.6,28.4,38,29.69,10.0,Calm,Calm,-,N/A,,Clear,0,2013-10-23 15:55:00
12:35 PM,53.6,28.4,38,29.67,10.0,SW,5.8,-,N/A,,Clear,220,2013-10-23 16:35:00
12:55 PM,53.6,28.4,38,29.66,10.0,SSW,4.6,-,N/A,,Clear,210,2013-10-23 16:55:00
1:15 PM,53.6,28.4,38,29.65,10.0,WSW,3.5,-,N/A,,Clear,250,2013-10-23 17:15:00
1:35 PM,53.6,28.4,38,29.65,10.0,SW,6.9,-,N/A,,Partly Cloudy,230,2013-10-23 17:35:00
1:55 PM,53.6,28.4,38,29.63,10.0,SW,6.9,-,N/A,,Mostly Cloudy,220,2013-10-23 17:55:00
2:15 PM,51.8,28.4,41,29.62,10.0,SW,4.6,-,N/A,,Partly Cloudy,220,2013-10-23 18:15:00
2:35 PM,53.6,30.2,41,29.60,10.0,SW,6.9,-,N/A,,Clear,220,2013-10-23 18:35:00
2:55 PM,53.6,28.4,38,29.60,10.0,Calm,Calm,-,N/A,,Clear,0,2013-10-23 18:55:00
3:15 PM,53.6,30.2,41,29.60,10.0,WSW,5.8,-,N/A,,Clear,250,2013-10-23 19:15:00
3:35 PM,53.6,28.4,38,29.57,10.0,West,4.6,-,N/A,,Clear,280,2013-10-23 19:35:00
3:55 PM,51.8,26.6,38,29.58,10.0,WNW,3.5,-,N/A,,Clear,300,2013-10-23 19:55:00
4:15 PM,51.8,28.4,41,29.59,10.0,West,4.6,-,N/A,,Clear,260,2013-10-23 20:15:00
4:35 PM,51.8,28.4,41,29.59,10.0,WSW,3.5,-,N/A,,Clear,250,2013-10-23 20:35:00
4:55 PM,51.8,30.2,44,29.58,10.0,Calm,Calm,-,N/A,,Clear,0,2013-10-23 20:55:00
5:15 PM,50.0,33.8,54,29.59,10.0,Calm,Calm,-,N/A,,Mostly Cloudy,0,2013-10-23 21:15:00
5:35 PM,46.4,35.6,66,29.58,10.0,Calm,Calm,-,N/A,,Mostly Cloudy,0,2013-10-23 21:35:00
5:55 PM,46.4,33.8,62,29.59,10.0,SW,4.6,-,N/A,,Clear,230,2013-10-23 21:55:00
6:15 PM,44.6,35.6,71,29.60,10.0,Calm,Calm,-,N/A,,Clear,0,2013-10-23 22:15:00
6:35 PM,44.6,35.6,71,29.60,10.0,Calm,Calm,-,N/A,,Mostly Cloudy,0,2013-10-23 22:35:00
6:55 PM,42.8,35.6,76,29.60,10.0,Calm,Calm,-,N/A,,Mostly Cloudy,0,2013-10-23 22:55:00
7:15 PM,42.8,35.6,76,29.60,10.0,Calm,Calm,-,N/A,,Overcast,0,2013-10-23 23:15:00
7:35 PM,42.8,35.6,76,29.59,10.0,Calm,Calm,-,N/A,,Overcast,0,2013-10-23 23:35:00
7:55 PM,41.0,35.6,81,29.58,10.0,Calm,Calm,-,N/A,,Mostly Cloudy,0,2013-10-23 23:55:00
8:15 PM,41.0,33.8,76,29.59,10.0,SW,4.6,-,N/A,,Mostly Cloudy,230,2013-10-24 00:15:00
8:35 PM,41.0,35.6,81,29.59,10.0,WSW,4.6,-,N/A,,Overcast,240,2013-10-24 00:35:00
8:55 PM,41.0,35.6,81,29.58,10.0,West,4.6,-,N/A,,Mostly Cloudy,260,2013-10-24 00:55:00
9:15 PM,41.0,33.8,76,29.59,10.0,Calm,Calm,-,N/A,,Scattered Clouds,0,2013-10-24 01:15:00
9:35 PM,41.0,33.8,76,29.60,10.0,WNW,3.5,-,N/A,,Mostly Cloudy,300,2013-10-24 01:35:00
9:55 PM,42.8,35.6,76,29.60,10.0,NNW,4.6,-,N/A,,Overcast,330,2013-10-24 01:55:00
10:15 PM,44.6,33.8,66,29.60,10.0,NNW,5.8,-,N/A,,Overcast,330,2013-10-24 02:15:00
10:35 PM,44.6,32.0,61,29.60,10.0,NNW,5.8,-,N/A,,Overcast,340,2013-10-24 02:35:00
10:55 PM,44.6,32.0,61,29.60,10.0,NNW,5.8,-,N/A,,Mostly Cloudy,340,2013-10-24 02:55:00
11:15 PM,44.6,32.0,61,29.60,10.0,NW,5.8,-,N/A,,Mostly Cloudy,320,2013-10-24 03:15:00
11:35 PM,44.6,30.2,57,29.60,10.0,WNW,3.5,-,N/A,,Partly Cloudy,300,2013-10-24 03:35:00
11:55 PM,44.6,30.2,57,29.60,10.0,NW,3.5,-,N/A,,Scattered Clouds,320,2013-10-24 03:55:00